This is the latest recevied weather packets stored in our database for station/object K7FLA. If no packets are shown the sender has not sent any weather packets the latest 10 day(s).
| Time | Temp. | Humidity | Pressure | Rain* | Wind** | Luminosity | Snow |
|---|---|---|---|---|---|---|---|
| 1787861683 | 40° C | 21% | 1095.2 hPa | 0 mm | - | 470 W/m² | - |
| 1787861381 | 40° C | 22% | 1095.3 hPa | 0 mm | - | 600 W/m² | - |
| 1787861076 | 40° C | 22% | 1095.4 hPa | 0 mm | - | 639 W/m² | - |
| 1787860774 | 39.44° C | 21% | 1095.3 hPa | 0 mm | - | 758 W/m² | - |
| 1787860470 | 39.44° C | 20% | 1095.5 hPa | 0 mm | - | 461 W/m² | - |
| 1787860170 | 40° C | 21% | 1095.4 hPa | 0 mm | - | 389 W/m² | - |
| 1787859866 | 40° C | 22% | 1095.4 hPa | 0 mm | - | 632 W/m² | - |
| 1787859561 | 40° C | 20% | 1095.5 hPa | 0 mm | - | 622 W/m² | - |
| 1787859255 | 40° C | 21% | 1095.7 hPa | 0 mm | - | 563 W/m² | - |
| 1787858951 | 40.56° C | 21% | 1095.6 hPa | 0 mm | - | 844 W/m² | - |
| 1787858647 | 40° C | 22% | 1095.6 hPa | 0 mm | - | 857 W/m² | - |
| 1787858342 | 40° C | 21% | 1096 hPa | 0 mm | - | 844 W/m² | - |
| 1787858037 | 40° C | 21% | 1095.7 hPa | 0 mm | - | 851 W/m² | - |
| 1787857732 | 40° C | 20% | 1095.9 hPa | 0 mm | - | 878 W/m² | - |
| 1787857428 | 40° C | 24% | 1096 hPa | 0 mm | - | 833 W/m² | - |
| 1787857120 | 39.44° C | 23% | 1096 hPa | 0 mm | - | 885 W/m² | - |
| 1787856815 | 39.44° C | 23% | 1095.9 hPa | 0 mm | - | 862 W/m² | - |
| 1787856509 | 38.89° C | 23% | 1096 hPa | 0 mm | - | 613 W/m² | - |
| 1787856206 | 38.89° C | 23% | 1096.1 hPa | 0 mm | - | 767 W/m² | - |
| 1787855905 | 39.44° C | 25% | 1096 hPa | 0 mm | - | 621 W/m² | - |
| 1787855600 | 39.44° C | 24% | 1095.9 hPa | 0 mm | - | 481 W/m² | - |
| 1787855290 | 39.44° C | 26% | 1096 hPa | 0 mm | - | 399 W/m² | - |
| 1787854986 | 40° C | 24% | 1096 hPa | 0 mm | - | 800 W/m² | - |
| 1787854681 | 40° C | 24% | 1096.2 hPa | 0 mm | - | 540 W/m² | - |
| 1787854380 | 40° C | 22% | 1096.4 hPa | 0 mm | - | 619 W/m² | - |
* Rain latest hour (hover to see other rain measurements)
** Current wind speed in m/s (hover to see current wind gust speed)